N7MLR Weather Reports


Display with metric or nautical units.
time (UTC)temp
F
wind
direction
speed
MPH
gust
MPH
rain 1hr
in
rain 24hr
in
rain mn
in
humidity
%
barometer
mb
20260905201526 97 202 1.0 2.0 0.00 0.00 0.00 45 1012.4
20260905201025 97 215 1.0 2.0 0.00 0.00 0.00 46 1012.3
20260905200521 96 260 2.0 5.0 0.00 0.00 0.00 46 1012.2
20260905200020 96 212 1.0 2.0 0.00 0.00 0.00 47 1012.4
20260905195514 96 211 1.0 1.0 0.00 0.00 0.00 48 1012.4
20260905195010 96 196 3.0 6.0 0.00 0.00 0.00 49 1012.5
20260905194504 96 239 2.0 2.0 0.00 0.00 0.00 48 1012.5
20260905194003 97 222 1.0 2.0 0.00 0.00 0.00 48 1012.6
20260905193458 96 230 1.0 2.0 0.00 0.00 0.00 48 1012.6
20260905192953 95 192 0.0 1.0 0.00 0.00 0.00 47 1012.6
20260905192449 94 202 0.0 1.0 0.00 0.00 0.00 49 1012.8
20260905191944 93 215 1.0 1.0 0.00 0.00 0.00 51 1013.0
20260905191438 96 187 2.0 2.0 0.00 0.00 0.00 49 1013.0
20260905190937 97 174 2.0 2.0 0.00 0.00 0.00 47 1013.2
20260905190435 97 158 1.0 2.0 0.00 0.00 0.00 47 1013.3
20260905185934 98 186 1.0 1.0 0.00 0.00 0.00 46 1013.6
20260905185429 96 210 1.0 1.0 0.00 0.00 0.00 46 1013.4
20260905184928 96 188 3.0 3.0 0.00 0.00 0.00 46 1013.6
20260905184423 94 211 1.0 1.0 0.00 0.00 0.00 50 1013.8
20260905183921 96 177 3.0 3.0 0.00 0.00 0.00 47 1013.8
20260905183416 96 207 1.0 2.0 0.00 0.00 0.00 45 1013.8
20260905182912 94 203 1.0 1.0 0.00 0.00 0.00 49 1013.8
20260905182411 97 154 2.0 2.0 0.00 0.00 0.00 45 1014.1
20260905181907 96 259 2.0 3.0 0.00 0.00 0.00 46 1014.0
20260905181407 95 195 0.0 1.0 0.00 0.00 0.00 45 1014.1
20260905180905 96 217 2.0 2.0 0.00 0.00 0.00 51 1014.3
20260905180401 94 198 1.0 2.0 0.00 0.00 0.00 47 1014.4
20260905175856 94 193 0.0 1.0 0.00 0.00 0.00 50 1014.6
20260905175355 96 189 1.0 2.0 0.00 0.00 0.00 50 1014.5
20260905174850 93 194 1.0 1.0 0.00 0.00 0.00 51 1014.5
20260905174346 92 198 2.0 2.0 0.00 0.00 0.00 54 1014.8
20260905173842 93 194 1.0 1.0 0.00 0.00 0.00 54 1014.7
20260905173337 94 239 1.0 2.0 0.00 0.00 0.00 55 1014.9
20260905172832 94 302 2.0 3.0 0.00 0.00 0.00 51 1014.9
20260905172330 93 137 3.0 3.0 0.00 0.00 0.00 57 1014.9
20260905171826 95 113 3.0 3.0 0.00 0.00 0.00 56 1014.9
20260905171323 94 239 2.0 2.0 0.00 0.00 0.00 54 1014.8
20260905170819 92 193 0.0 1.0 0.00 0.00 0.00 60 1015.1
20260905170315 91 180 1.0 1.0 0.00 0.00 0.00 58 1015.1
20260905165814 91 215 1.0 1.0 0.00 0.00 0.00 59 1015.2
20260905165310 92 235 1.0 2.0 0.00 0.00 0.00 59 1015.0
20260905164810 91 208 1.0 1.0 0.00 0.00 0.00 61 1015.4
20260905164310 89 157 2.0 2.0 0.00 0.00 0.00 63 1015.2
20260905163805 88 214 1.0 2.0 0.00 0.00 0.00 64 1015.0
20260905163302 87 202 1.0 2.0 0.00 0.00 0.00 65 1015.0
20260905162757 86 192 1.0 1.0 0.00 0.00 0.00 66 1015.0
20260905162257 86 138 2.0 2.0 0.00 0.00 0.00 69 1015.0
20260905161751 87 192 1.0 2.0 0.00 0.00 0.00 68 1015.1
20260905161250 88 190 1.0 2.0 0.00 0.00 0.00 67 1015.2
20260905160749 88 200 2.0 3.0 0.00 0.00 0.00 67 1015.3
20260905160243 87 192 3.0 3.0 0.00 0.00 0.00 68 1015.3
20260905155738 85 204 0.0 0.0 0.00 0.00 0.00 72 1015.2
20260905155237 86 190 2.0 2.0 0.00 0.00 0.00 71 1015.2
20260905154731 86 193 1.0 1.0 0.00 0.00 0.00 71 1015.2
20260905154227 86 202 1.0 1.0 0.00 0.00 0.00 72 1015.1
20260905153722 84 202 1.0 1.0 0.00 0.00 0.00 75 1015.0
20260905153219 83 195 1.0 1.0 0.00 0.00 0.00 77 1015.3
20260905152713 82 192 1.0 2.0 0.00 0.00 0.00 79 1015.1
20260905152207 82 194 0.0 1.0 0.00 0.00 0.00 80 1014.9
20260905151707 82 200 0.0 1.0 0.00 0.00 0.00 81 1015.0
20260905151203 82 204 1.0 1.0 0.00 0.00 0.00 81 1015.0
20260905150658 83 196 1.0 1.0 0.00 0.00 0.00 80 1014.9
20260905150156 82 196 1.0 1.0 0.00 0.00 0.00 82 1015.1
20260905145654 83 220 2.0 2.0 0.00 0.00 0.00 82 1015.0
20260905145149 82 177 2.0 2.0 0.00 0.00 0.00 82 1015.0
20260905144643 82 190 1.0 1.0 0.00 0.00 0.00 82 1015.0
20260905144143 84 195 1.0 2.0 0.00 0.00 0.00 80 1015.0
20260905143637 83 198 0.0 0.0 0.00 0.00 0.00 81 1015.0
20260905143132 82 137 2.0 2.0 0.00 0.00 0.00 83 1015.1
20260905142630 82 209 1.0 1.0 0.00 0.00 0.00 86 1015.0
20260905142125 80 195 0.0 0.0 0.00 0.00 0.00 88 1014.9
20260905141625 81 205 0.0 0.0 0.00 0.00 0.00 87 1014.9
20260905141121 80 215 0.0 1.0 0.00 0.00 0.00 89 1014.9
20260905140616 80 208 0.0 1.0 0.00 0.00 0.00 90 1015.0
20260905140115 79 237 0.0 0.0 0.00 0.00 0.00 91 1014.8
20260905135611 79 219 0.0 0.0 0.00 0.00 0.00 92 1014.8
20260905135106 79 222 0.0 1.0 0.00 0.00 0.00 91 1014.9
20260905134601 79 204 0.0 0.0 0.00 0.00 0.00 92 1014.9
20260905134059 78 213 0.0 1.0 0.00 0.00 0.00 92 1014.7
20260905133555 78 209 0.0 1.0 0.00 0.00 0.00 93 1014.6
20260905133055 77 205 0.0 0.0 0.00 0.00 0.00 94 1014.6
20260905132554 76 202 0.0 1.0 0.00 0.00 0.00 94 1014.7
20260905132049 75 200 1.0 1.0 0.00 0.00 0.00 95 1014.6
20260905131545 75 202 0.0 0.0 0.00 0.00 0.00 96 1014.6
20260905131040 74 202 0.0 0.0 0.00 0.00 0.00 96 1014.6
20260905130539 74 201 0.0 0.0 0.00 0.00 0.00 96 1014.4
20260905130034 73 201 0.0 0.0 0.00 0.00 0.00 96 1014.3
20260905125533 72 201 0.0 0.0 0.00 0.00 0.00 96 1014.3
20260905125029 72 201 0.0 0.0 0.00 0.00 0.00 96 1014.1
20260905124526 72 201 0.0 0.0 0.00 0.00 0.00 96 1014.1
20260905124021 72 202 0.0 0.0 0.00 0.00 0.00 96 1014.0
20260905123517 72 201 0.0 0.0 0.00 0.00 0.00 96 1014.2
20260905123014 72 200 0.0 0.0 0.00 0.00 0.00 96 1013.8
20260905122507 72 198 0.0 0.0 0.00 0.00 0.00 95 1014.0
20260905122002 72 198 0.0 0.0 0.00 0.00 0.00 95 1014.1
20260905121457 72 193 0.0 0.0 0.00 0.00 0.00 95 1014.0
20260905120956 72 198 0.0 0.0 0.00 0.00 0.00 95 1013.7
20260905120451 72 198 0.0 0.0 0.00 0.00 0.00 94 1013.8
20260905115946 73 193 0.0 0.0 0.00 0.00 0.00 94 1013.7
20260905115445 73 200 0.0 1.0 0.00 0.00 0.00 94 1013.7
20260905114940 73 204 0.0 0.0 0.00 0.00 0.00 95 1013.6
20260905114440 73 198 0.0 1.0 0.00 0.00 0.00 95 1014.1
20260905113939 73 198 1.0 1.0 0.00 0.00 0.00 96 1013.5
20260905113434 73 200 1.0 1.0 0.00 0.00 0.00 96 1014.0
20260905112929 72 200 0.0 1.0 0.00 0.00 0.00 96 1013.6
20260905112425 72 200 0.0 0.0 0.00 0.00 0.00 96 1013.7
20260905111919 72 200 0.0 0.0 0.00 0.00 0.00 96 1013.5
20260905111414 72 200 0.0 0.0 0.00 0.00 0.00 96 1013.8
20260905110914 72 200 0.0 0.0 0.00 0.00 0.00 95 1014.0
20260905110408 72 200 0.0 0.0 0.00 0.00 0.00 95 1014.0
20260905105903 72 200 0.0 0.0 0.00 0.00 0.00 95 1013.6
20260905105357 72 200 0.0 0.0 0.00 0.00 0.00 95 1013.5
20260905104856 73 200 0.0 0.0 0.00 0.00 0.00 95 1013.6
20260905104353 73 201 0.0 0.0 0.00 0.00 0.00 94 1013.5
20260905103853 73 201 0.0 0.0 0.00 0.00 0.00 94 1013.5
20260905103348 73 201 0.0 0.0 0.00 0.00 0.00 94 1013.4
20260905102844 73 201 0.0 0.0 0.00 0.00 0.00 93 1013.3
20260905102341 74 201 0.0 0.0 0.00 0.00 0.00 93 1013.5
20260905101840 74 198 0.0 1.0 0.00 0.00 0.00 93 1013.4
20260905101339 74 200 0.0 0.0 0.00 0.00 0.00 93 1013.5
20260905100833 74 193 0.0 0.0 0.00 0.00 0.00 93 1013.5
20260905100330 74 200 0.0 1.0 0.00 0.00 0.00 94 1013.5
20260905095829 74 200 0.0 1.0 0.00 0.00 0.00 94 1013.4
20260905095323 73 202 0.0 1.0 0.00 0.00 0.00 95 1013.2
20260905094817 73 202 0.0 0.0 0.00 0.00 0.00 94 1013.3
20260905094314 73 202 0.0 0.0 0.00 0.00 0.00 94 1013.6
20260905093812 74 202 0.0 0.0 0.00 0.00 0.00 94 1013.3
20260905093308 74 202 0.0 0.0 0.00 0.00 0.00 93 1013.4
20260905092804 74 202 0.0 0.0 0.00 0.00 0.00 93 1013.4
20260905092258 75 202 0.0 0.0 0.00 0.00 0.00 93 1013.4
20260905091758 75 202 0.0 0.0 0.00 0.00 0.00 92 1013.5
20260905091253 75 202 0.0 0.0 0.00 0.00 0.00 92 1013.4
20260905090752 75 202 0.0 0.0 0.00 0.00 0.00 91 1013.4
20260905090248 76 202 0.0 0.0 0.00 0.00 0.00 90 1013.5
20260905085747 76 202 0.0 0.0 0.00 0.00 0.00 90 1013.5
20260905085247 77 202 0.0 0.0 0.00 0.00 0.00 89 1013.5
20260905084742 76 204 0.0 1.0 0.00 0.00 0.00 89 1013.2
20260905084242 76 203 0.0 0.0 0.00 0.00 0.00 89 1013.5
20260905083737 76 201 0.0 0.0 0.00 0.00 0.00 91 1013.6
20260905083232 75 204 1.0 1.0 0.00 0.00 0.00 92 1013.4
20260905082728 75 204 0.0 0.0 0.00 0.00 0.00 93 1013.4
20260905082224 75 205 0.0 0.0 0.00 0.00 0.00 93 1013.6
20260905081718 75 205 0.0 0.0 0.00 0.00 0.00 92 1013.8
20260905081213 75 205 0.0 0.0 0.00 0.00 0.00 92 1013.6
20260905080713 75 205 0.0 0.0 0.00 0.00 0.00 91 1014.1
20260905080207 75 205 0.0 0.0 0.00 0.00 0.00 91 1013.7
20260905075706 75 205 0.0 0.0 0.00 0.00 0.00 90 1014.1
20260905075206 76 205 0.0 0.0 0.00 0.00 0.00 90 1013.7
20260905074704 76 205 0.0 0.0 0.00 0.00 0.00 89 1014.1
20260905074200 76 205 0.0 0.0 0.00 0.00 0.00 88 1013.8
20260905073656 77 205 0.0 0.0 0.00 0.00 0.00 87 1014.2
20260905073152 77 205 0.0 0.0 0.00 0.00 0.00 87 1013.8
20260905072651 77 205 0.0 1.0 0.00 0.00 0.00 86 1014.2
20260905072146 78 208 0.0 1.0 0.00 0.00 0.00 85 1014.3
20260905071643 78 208 0.0 0.0 0.00 0.00 0.00 85 1014.3
20260905071138 78 211 1.0 1.0 0.00 0.00 0.00 85 1014.5
20260905070633 78 210 0.0 0.0 0.00 0.00 0.00 86 1014.0
20260905070129 77 209 0.0 1.0 0.00 0.00 0.00 87 1014.1
20260905065627 77 224 0.0 0.0 0.00 0.00 0.00 87 1014.4
20260905065122 77 224 0.0 0.0 0.00 0.00 0.00 87 1014.1
20260905064617 77 224 0.0 1.0 0.00 0.00 0.00 86 1014.4
20260905064112 77 226 0.0 0.0 0.00 0.00 0.00 86 1014.3
20260905063605 77 222 0.0 0.0 0.00 0.00 0.00 85 1014.3
20260905063102 78 221 0.0 0.0 0.00 0.00 0.00 85 1014.3
20260905062557 78 219 0.0 0.0 0.00 0.00 0.00 84 1014.3
20260905062056 78 219 0.0 0.0 0.00 0.00 0.00 83 1014.4
20260905061552 79 216 0.0 0.0 0.00 0.00 0.00 82 1014.3
20260905061051 80 215 0.0 0.0 0.00 0.00 0.00 80 1014.5
20260905060547 80 214 0.0 1.0 0.00 0.00 0.00 79 1014.4
20260905060043 80 200 1.0 1.0 0.00 0.00 0.00 79 1014.2
20260905055541 80 201 1.0 2.0 0.00 0.00 0.00 79 1014.1
20260905055036 80 204 0.0 0.0 0.00 0.00 0.00 79 1014.4
20260905054532 78 207 0.0 1.0 0.00 0.00 0.00 82 1014.2
20260905054027 78 225 0.0 0.0 0.00 0.00 0.00 83 1014.1
20260905053527 78 224 0.0 0.0 0.00 0.00 0.00 83 1014.1
20260905053023 78 224 0.0 0.0 0.00 0.00 0.00 83 1014.3
20260905052522 78 224 0.0 1.0 0.00 0.00 0.00 82 1013.8
20260905052016 79 223 0.0 0.0 0.00 0.00 0.00 82 1014.3
20260905051512 79 221 0.0 0.0 0.00 0.00 0.00 81 1014.1
20260905051009 79 221 0.0 0.0 0.00 0.00 0.00 81 1014.4
20260905050504 80 217 0.0 0.0 0.00 0.00 0.00 80 1014.2
20260905050001 81 216 0.0 0.0 0.00 0.00 0.00 78 1014.4
20260905045455 81 202 0.0 1.0 0.00 0.00 0.00 77 1014.2
20260905044951 81 207 0.0 0.0 0.00 0.00 0.00 77 1014.4
20260905044445 81 215 1.0 1.0 0.00 0.00 0.00 77 1014.3
20260905043945 81 207 0.0 1.0 0.00 0.00 0.00 77 1014.2
20260905043444 81 208 0.0 1.0 0.00 0.00 0.00 77 1014.3
20260905042939 81 207 1.0 1.0 0.00 0.00 0.00 76 1014.2
20260905042433 81 211 0.0 0.0 0.00 0.00 0.00 76 1014.7
20260905041929 80 228 0.0 1.0 0.00 0.00 0.00 79 1014.2
20260905041425 80 224 1.0 2.0 0.00 0.00 0.00 79 1014.3
20260905040924 80 225 0.0 0.0 0.00 0.00 0.00 79 1014.4
20260905040418 80 223 0.0 0.0 0.00 0.00 0.00 78 1014.3
20260905035918 80 221 0.0 0.0 0.00 0.00 0.00 78 1014.1
20260905035413 80 225 0.0 0.0 0.00 0.00 0.00 77 1014.2
20260905034910 81 230 1.0 1.0 0.00 0.00 0.00 77 1014.1
20260905034405 81 216 1.0 1.0 0.00 0.00 0.00 76 1014.2
20260905033904 82 208 0.0 0.0 0.00 0.00 0.00 73 1014.0
20260905033359 82 207 0.0 1.0 0.00 0.00 0.00 73 1014.1
20260905032858 82 212 1.0 1.0 0.00 0.00 0.00 73 1014.0
20260905032354 82 219 0.0 0.0 0.00 0.00 0.00 73 1014.0
20260905031849 82 204 1.0 1.0 0.00 0.00 0.00 72 1014.0
20260905031345 82 210 1.0 1.0 0.00 0.00 0.00 73 1014.0
20260905030840 81 211 0.0 0.0 0.00 0.00 0.00 73 1014.1
20260905030336 81 196 0.0 0.0 0.00 0.00 0.00 73 1013.7
20260905025835 81 204 0.0 1.0 0.00 0.00 0.00 73 1013.6
20260905025330 80 212 0.0 1.0 0.00 0.00 0.00 74 1013.7
20260905024827 80 229 0.0 0.0 0.00 0.00 0.00 74 1013.5
20260905024321 81 229 0.0 0.0 0.00 0.00 0.00 73 1013.4
20260905023817 81 229 0.0 0.0 0.00 0.00 0.00 72 1013.4
20260905023312 82 227 0.0 0.0 0.00 0.00 0.00 71 1013.4
20260905022811 82 234 1.0 1.0 0.00 0.00 0.00 71 1013.0
20260905022306 82 218 0.0 0.0 0.00 0.00 0.00 70 1013.1
20260905021801 83 223 0.0 1.0 0.00 0.00 0.00 69 1013.3
20260905021256 83 214 0.0 1.0 0.00 0.00 0.00 68 1013.0
20260905020756 84 226 1.0 1.0 0.00 0.00 0.00 68 1013.1
20260905020251 84 210 0.0 1.0 0.00 0.00 0.00 67 1013.2
20260905015750 84 212 1.0 1.0 0.00 0.00 0.00 68 1013.2
20260905015244 84 212 0.0 1.0 0.00 0.00 0.00 67 1013.0
20260905014743 84 208 0.0 1.0 0.00 0.00 0.00 67 1013.0
20260905014239 84 209 0.0 1.0 0.00 0.00 0.00 67 1013.0
20260905013735 84 212 1.0 1.0 0.00 0.00 0.00 67 1013.0
20260905013231 84 200 2.0 3.0 0.00 0.00 0.00 67 1013.1
20260905012726 84 232 1.0 1.0 0.00 0.00 0.00 66 1012.9
20260905012221 84 218 1.0 1.0 0.00 0.00 0.00 65 1013.1
20260905011718 85 219 2.0 3.0 0.00 0.00 0.00 64 1012.9
20260905011208 85 212 1.0 1.0 0.00 0.00 0.00 60 1012.9
20260905010708 85 210 1.0 1.0 0.00 0.00 0.00 59 1012.9
20260905010203 85 205 0.0 1.0 0.00 0.00 0.00 58 1012.5
20260905005700 86 201 0.0 1.0 0.00 0.00 0.00 58 1012.8
20260905005155 86 202 1.0 1.0 0.00 0.00 0.00 57 1012.5
20260905004649 86 204 0.0 0.0 0.00 0.00 0.00 57 1012.7
20260905004144 86 206 1.0 1.0 0.00 0.00 0.00 56 1012.6
20260905003640 86 208 1.0 1.0 0.00 0.00 0.00 56 1012.7
20260905003136 86 220 0.0 0.0 0.00 0.00 0.00 57 1012.6
20260905002630 86 217 1.0 2.0 0.00 0.00 0.00 57 1012.5
20260905002120 87 228 1.0 1.0 0.00 0.00 0.00 57 1012.4
20260905001615 87 223 0.0 0.0 0.00 0.00 0.00 57 1012.4
20260905001115 87 218 0.0 0.0 0.00 0.00 0.00 56 1012.2
20260905000610 88 205 3.0 3.0 0.00 0.00 0.00 55 1012.4
20260905000106 89 205 2.0 2.0 0.00 0.00 0.00 56 1012.2
20260904235606 89 228 4.0 5.0 0.00 0.00 0.00 56 1012.0
20260904235105 89 210 0.0 0.0 0.00 0.00 0.00 57 1011.9
20260904234600 89 235 3.0 5.0 0.00 0.00 0.00 58 1012.0
20260904234056 89 201 1.0 1.0 0.00 0.00 0.00 60 1012.1
20260904233556 89 321 1.0 1.0 0.00 0.00 0.00 60 1012.0
20260904233052 89 249 2.0 3.0 0.00 0.00 0.00 60 1011.9
20260904232549 89 214 0.0 1.0 0.00 0.00 0.00 60 1011.8
20260904232045 90 217 0.0 1.0 0.00 0.00 0.00 60 1011.7
20260904231541 89 229 2.0 5.0 0.00 0.00 0.00 61 1011.8
20260904231036 89 221 3.0 3.0 0.00 0.00 0.00 61 1012.0
20260904230534 89 225 2.0 3.0 0.00 0.00 0.00 60 1012.1
20260904230031 89 209 4.0 6.0 0.00 0.00 0.00 60 1012.1
20260904225528 89 213 2.0 2.0 0.00 0.00 0.00 60 1012.1
20260904225028 90 213 3.0 5.0 0.00 0.00 0.00 60 1012.1
20260904224523 91 208 1.0 3.0 0.00 0.00 0.00 58 1012.1
20260904224023 91 212 0.0 1.0 0.00 0.00 0.00 58 1012.0
20260904223522 92 199 1.0 2.0 0.00 0.00 0.00 56 1012.1
20260904223018 91 205 0.0 1.0 0.00 0.00 0.00 57 1012.3
20260904222513 91 211 2.0 3.0 0.00 0.00 0.00 56 1012.3
20260904222008 91 214 1.0 2.0 0.00 0.00 0.00 56 1012.4
20260904221503 91 217 3.0 3.0 0.00 0.00 0.00 55 1012.7
20260904220957 91 206 0.0 1.0 0.00 0.00 0.00 53 1012.7
20260904220457 90 198 1.0 2.0 0.00 0.00 0.00 55 1012.5
20260904215952 91 208 1.0 1.0 0.00 0.00 0.00 56 1012.6
20260904215448 92 225 0.0 0.0 0.00 0.00 0.00 55 1012.5
20260904214943 92 228 1.0 1.0 0.00 0.00 0.00 55 1012.5
20260904214438 92 209 2.0 2.0 0.00 0.00 0.00 56 1012.6
20260904213933 91 207 0.0 0.0 0.00 0.00 0.00 54 1012.7
20260904213426 91 202 1.0 2.0 0.00 0.00 0.00 55 1012.8
20260904212923 91 200 0.0 1.0 0.00 0.00 0.00 55 1013.0
20260904212422 91 191 1.0 2.0 0.00 0.00 0.00 56 1013.1
20260904211918 91 200 1.0 2.0 0.00 0.00 0.00 55 1013.0
20260904211413 91 221 1.0 1.0 0.00 0.00 0.00 57 1013.2
20260904210908 90 216 1.0 1.0 0.00 0.00 0.00 58 1013.3
20260904210407 91 221 2.0 3.0 0.00 0.00 0.00 57 1013.3
20260904205903 91 288 1.0 2.0 0.00 0.00 0.00 56 1013.3
20260904205359 91 208 0.0 0.0 0.00 0.00 0.00 58 1013.0
20260904204855 91 198 1.0 2.0 0.00 0.00 0.00 58 1013.3
20260904204351 92 204 0.0 1.0 0.00 0.00 0.00 56 1013.3
20260904203847 92 209 1.0 2.0 0.00 0.00 0.00 57 1013.2
20260904203343 91 147 3.0 3.0 0.00 0.00 0.00 59 1013.3
20260904202839 92 225 0.0 1.0 0.00 0.00 0.00 55 1013.3
20260904202335 93 202 0.0 1.0 0.00 0.00 0.00 55 1013.5